User: anonymous   Login
Location: *
(48.8489°N, 2.3218°E)
Time: 23:30:17
(UTC+00:00)
Language:

EXPRESS MD2 - Orbit

View from above orbital plane
View from above orbital plane
View from above satellite
View from above satellite

Ground track
Ground track

The orbit data is extracted from the following two-line orbital elements,

1 38745U 12044B   19294.73775304 +.00006505 +22163-5 +18387-3 0  9994
2 38745 049.9071 007.8123 2222175 267.5060 067.1611 11.00073883280954
Epoch (UTC): 21 October 2019 17:42:21
Eccentricity: 0.2222175
inclination: 49.9071°
perigee height: 264 km
apogee height: 4059 km
right ascension of ascending node: 7.8123°
argument of perigee: 267.5060°
revolutions per day: 11.00073883
mean anomaly at epoch: 67.1611°
orbit number at epoch: 28095

The dashed part of the orbit path shows where the satellite is in the earth's shadow,  

DLR